Regional Weather Roundup
Issued by NWS

Home | Current Version | Previous Version | Graphics & Text | Print | Product List | Glossary Off
Versions: 1 2 3 4 5 6 7 8 9 10 11 12 13 14 15 16 17 18 19 20 21 22 23 24 25 26 27 28 29 30 31 32 33 34 35 36 37 38 39 40 41 42 43 44 45 46 47 48 49

000
ASUS43 KDMX 222107
RWRIA

WEATHER ROUNDUP FOR IOWA
NATIONAL WEATHER SERVICE DES MOINES IA
300 PM CST MON DEC 22 2014

NOTE: "FAIR" INDICATES FEW OR NO CLOUDS BELOW 12,000 FEET WITH NO
SIGNIFICANT WEATHER AND/OR OBSTRUCTIONS TO VISIBILITY.

* - THESE STATIONS ARE NOT NWS STATIONS...THUS NOT UNDER NWS
QUALITY CONTROL.  THEY ALSO DO NOT REPORT WEATHER SUCH
AS PRECIPITATION OR FOG.

IAZ001>003-012>014-020>022-031>034-043>046-222200-
   NORTHWEST IOWA

CITY           SKY/WX    TMP DP  RH WIND       PRES   REMARKS
CARROLL *      CLOUDY    41  41 100 SE13      29.43F FOG
CHEROKEE *     LGT RAIN  41  41 100 SE12      29.42S
DENISON *      PTSUNNY   41  41 100 SE6       29.40S FOG
LE MARS *      MIX PCPN  41  41 100 SE5       29.41S
ORANGE CITY *  LGT RAIN  41  39  93 SE5       29.40S
SHELDON *      CLOUDY    39  39 100 SE10      29.41S FOG     WCI  32
SIOUX CITY     LGT RAIN  42  40  92 N3        29.41S
SPENCER        LGT RAIN  40  38  93 SE12      29.44S FOG     WCI  33
STORM LAKE *   MIX PCPN  39  39 100 SE12      29.43S WCI  32
$$

IAZ055>058-069>071-079>083-090>094-222200-
   SOUTHWEST IOWA

CITY           SKY/WX    TMP DP  RH WIND       PRES   REMARKS
ATLANTIC *     MIX PCPN  43  41  93 SE8       29.41F
AUDUBON *      LGT RAIN  41  36  81 SE8       29.43S
CLARINDA *     PTSUNNY   43  43 100 SE7       29.43S
COUNCIL BLFS * CLOUDY    43  43 100 SE5       29.39S FOG
CRESTON *      MIX PCPN  41  41 100 SE9       29.43S
HARLAN  *      CLOUDY    43  43 100 SE6G12    29.45S FOG
LAMONI         LGT RAIN  41  40  96 SE7       29.44F
RED OAK *      LGT RAIN  43  43 100 SE6       29.41S
SHENANDOAH *   MIX PCPN  45  45 100 S6        29.41S
$$

IAZ047>049-059>061-072>074-084-222200-
   CENTRAL IOWA

CITY           SKY/WX    TMP DP  RH WIND       PRES   REMARKS
AMES           CLOUDY    38  36  92 SE12      29.48F FOG     WCI  30
ANKENY *       CLOUDY    39  39 100 SE10      29.48S FOG     WCI  32
CHARITON *     MIX PCPN  41  39  93 SE9       29.46F VSB 1
DES MOINES     LGT RAIN  41  38  89 SE9       29.47F FOG
GRINNELL*      CLOUDY    37  36  93 E15       29.51S FOG     WCI  28
KNOXVILLE *    CLOUDY    39  37  93 SE8G15    29.47F FOG     WCI  34
MARSHALLTOWN   CLOUDY    38  36  92 E12       29.50F WCI  30
PELLA *        CLOUDY    39  39 100 SE9       29.51S FOG     WCI  33
PERRY *        CLOUDY    41  39  93 SE12      29.46S FOG
$$

IAZ004>006-015-016-023>025-035-036-222200-
   NORTH CENTRAL IOWA

CITY           SKY/WX    TMP DP  RH WIND       PRES   REMARKS
ALGONA *       CLOUDY    37 N/A N/A SE15G21   29.48S FOG     WCI  28
CLARION *      CLOUDY    37  37 100 SE16      29.49S FOG     WCI  28
ESTHERVILLE    MIX PCPN  37  36  96 SE16      29.46S FOG     WCI  28
FORT DODGE *   CLOUDY    37  36  93 SE13      29.48S WCI  29
MASON CITY     MIX PCPN  34  33  96 E14       29.53F FOG     WCI  25
FOREST CITY *  LGT RAIN  34  32  93 E12G17    29.51S WCI  25
IOWA FALLS *   RAIN      37  36  93 E14       29.50F WCI  29
$$

IAZ007>011-017>019-026>030-037>042-050>054-066-222200-
   NORTHEAST IOWA

CITY           SKY/WX    TMP DP  RH WIND       PRES   REMARKS
CEDAR RAPIDS   CLOUDY    37  37 100 E10       29.54F FOG     WCI  30
CHARLES CITY * LGT SNOW  37  37 100 E15       29.55F WCI  28
CLINTON *      CLOUDY    36  34  93 SE14      29.62F WCI  27
DECORAH *      MIX PCPN  36  36 100 E13       29.58S WCI  27
DUBUQUE        MIX PCPN  35  34  96 E14       29.59R FOG     WCI  26
MONTICELLO *   CLOUDY    36  36 100 E14G21    29.58S FOG     WCI  27
OELWEIN *      CLOUDY    37  36  93 SE13      29.56S FOG     WCI  29
WATERLOO       LGT RAIN  37  36  96 E15       29.54F FOG     WCI  28
$$

IAZ064-065-067-068-078-222200-
   EAST CENTRAL IOWA

CITY           SKY/WX    TMP DP  RH WIND       PRES   REMARKS
DAVENPORT      CLOUDY    36  34  92 SE13      29.59F FOG     WCI  27
IOWA CITY      CLOUDY    38  38 100 SE9       29.57F FOG     WCI  31
MT. PLEASANT * CLOUDY    39  39 100 SE8       29.54F FOG     WCI  34
MUSCATINE *    CLOUDY    39  37  93 SE9       29.57F FOG     WCI  33
QUAD CITIES    LGT RAIN  38  36  92 SE9       29.58S FOG     WCI  31
$$

IAZ062-063-075>077-085>089-095>099-222200-
   SOUTHEAST IOWA

CITY           SKY/WX    TMP DP  RH WIND       PRES   REMARKS
BURLINGTON     CLOUDY    40  40 100 SE8       29.54F FOG     WCI  34
FAIRFIELD *    FOG       39  37  93 SE13      29.53S VSB 1/2 WCI  32
FORT MADISON * FOG       43  43 100 SE7       29.55F VSB 1
KEOKUK *       CLOUDY    41  41 100 SE7       29.53F FOG
OSKALOOSA *    FOG       37  37 100 SE12      29.51F VSB 1/2 WCI  30
CENTERVILLE *  LGT RAIN  39  39 100 E8        29.49F WCI  34
OTTUMWA        FOG       38  37  97 SE13      29.51S VSB 1/2 WCI  30
WASHINGTON *   MIX PCPN  39  39 100 SE12      29.54S VSB 1/2 WCI  32
$$

ABBREVIATIONS USED IN REMARKS
   TC - TEMPERATURES IN CELSIUS
  WCI - WIND CHILL INDEX
   HX - HEAT INDEX
  VSB - VISIBILITY
$$




USA.gov is the U.S. government's official web portal to all federal, state and local government web resources and services.